Location: Ferchesar
(52.6477°N, 12.4298°E)
Time: 15:32:40
(UTC+01:00)

deb Explorer IX - Pass Details

Date: 13 December 2021
Orbit: 544 x 1082 km, 38.8° (Epoch: 18 January)

Event Time Altitude Azimuth Distance (km) Brightness Sun altitude
Rises 07:22:27 0° 226° (SW) 3,581 ? -7.3°
Reaches altitude 10° 07:26:07 10° 208° (SSW) 2,526 ? -6.8°
Maximum altitude 07:29:46 17° 170° (S) 1,971 ? -6.3°
Drops below altitude 10° 07:33:08 10° 131° (SE) 2,290 ? -5.9°
Sets 07:36:13 0° 111° (ESE) 3,104 ? -5.5°
